Regional Weather Roundup
Issued by NWS

Home | Current Version | Previous Version | Text Only | Print | Product List | Glossary Off
Versions: 1 2 3 4 5 6 7 8 9 10 11 12 13 14 15 16 17 18 19 20 21 22 23 24 25 26 27

000
ASUS45 KPSR 191810
RWRAZ

ARIZONA HOURLY REGIONAL WEATHER ROUNDUP
NATIONAL WEATHER SERVICE PHOENIX AZ
1100 AM MST THU JAN 19 2017

NOTE: FAIR INDICATES FEW OR NO CLOUDS BELOW 12,000 FEET WITH NO
SIGNIFICANT WEATHER AND/OR OBSTRUCTIONS TO VISIBILITY.

AZZ001>003-036-191900-
NORTHWEST ARIZONA

CITY           SKY/WX    TMP DP  RH WIND       PRES   REMARKS
BULLHEAD CITY  CLOUDY    52  46  82 CALM      29.94F
KINGMAN        CLOUDY    44  39  82 MISG      29.93R
6HR MIN TEMP:  42; 6HR MAX TEMP:  47; 6HR PCP:  0.05;

$$

AZZ004>008-015-016-018-191900-
NORTH CENTRAL ARIZONA

CITY           SKY/WX    TMP DP  RH WIND       PRES   REMARKS
GRAND CANYON   LGT SNOW  31  31 100 SW13      29.91F FOG     WCI  21
6HR MIN TEMP:  30; 6HR MAX TEMP:  31; 6HR PCP:  0.09;

WILLIAMS       CLOUDY    34  28  80 S13G20    29.93S HAZE    WCI  25
PRESCOTT       CLOUDY    37  36  96 SE7       29.97F WCI  32
6HR MIN TEMP:  36; 6HR MAX TEMP:  39; 6HR PCP: TRACE;

FLAGSTAFF      LGT SNOW  30  28  92 SW17      29.93F FOG     WCI  18
6HR MIN TEMP:  29; 6HR MAX TEMP:  30; 6HR PCP:  0.02;

PAYSON         LGT RAIN  37  34  87 S7G15     30.04R WCI  32
PAGE           CLOUDY    40  31  70 N3        29.86F
6HR MIN TEMP:  36; 6HR MAX TEMP:  40;

$$

AZZ009>014-017-191900-
NORTHEAST ARIZONA

CITY           SKY/WX    TMP DP  RH WIND       PRES   REMARKS
WINSLOW        CLOUDY    43  31  62 SW10      29.95S
6HR MIN TEMP:  32; 6HR MAX TEMP:  43;

SAINT JOHNS    CLOUDY    41  30  65 CALM      29.95F
6HR MIN TEMP:  24; 6HR MAX TEMP:  41;

SHOW LOW       CLOUDY    36  28  75 S22G33    29.97S WCI  24
$$

AZZ023-191900-
GREATER PHOENIX AREA

CITY           SKY/WX    TMP DP  RH WIND       PRES   REMARKS
PHOENIX        CLOUDY    51  43  74 VRB3      30.01F
6HR MIN TEMP:  47; 6HR MAX TEMP:  51; 6HR PCP:  0.01;

BUCKEYE        CLOUDY    52  52 100 SE8       30.02S
GLENDALE       CLOUDY    52  52 100 CALM      30.04R
LUKE AFB       PTSUNNY   50  50 100 NE5       30.01S
6HR MIN TEMP:  44; 6HR MAX TEMP:  51; 6HR PCP:  0.02;

DEER VALLEY    CLOUDY    51  42  71 SE3       30.01F
6HR MIN TEMP:  47; 6HR MAX TEMP:  51; 6HR PCP: TRACE;

SCOTTSDALE     CLOUDY    52  42  69 S7        30.03S
6HR MIN TEMP:  45; 6HR MAX TEMP:  52; 6HR PCP: TRACE;

MESA-FALCON    CLOUDY   N/A N/A N/A SE12      29.99F
MESA-GATEWAY   CLOUDY    52  41  66 SE7       30.03S
CHANDLER       CLOUDY    54  41  62 SE8       30.03F
$$

AZZ027-028-191900-
SOUTHWEST MARICOPA COUNTY AND PINAL COUNTY

CITY           SKY/WX    TMP DP  RH WIND       PRES   REMARKS
CASA GRANDE    CLOUDY    52  40  63 SE7       30.04S
6HR MIN TEMP:  43; 6HR MAX TEMP:  52; 6HR PCP: TRACE;

$$

AZZ503-504-507>509-191900-
SOUTHEAST ARIZONA

CITY           SKY/WX    TMP DP  RH WIND       PRES   REMARKS
TUCSON         CLOUDY    52  36  54 S6        30.06F
6HR MIN TEMP:  43; 6HR MAX TEMP:  52;

DAVIS-MONTHAN  CLOUDY    51  35  55 SE6       30.05F
6HR MIN TEMP:  42; 6HR MAX TEMP:  51;

RYAN FIELD     CLOUDY    50  39  66 SE5       30.07S
NOGALES        PTSUNNY   50  30  46 SE6       30.05F
6HR MIN TEMP:  33; 6HR MAX TEMP:  50;

SIERRA VISTA   PTSUNNY   50  24  37 CALM      30.05F
6HR MIN TEMP:  33; 6HR MAX TEMP:  50;

DOUGLAS        MOSUNNY   49  33  54 S6        30.05F
6HR MIN TEMP:  27; 6HR MAX TEMP:  49;

SAFFORD        CLOUDY    49  37  63 CALM      30.02R
6HR MIN TEMP:  34; 6HR MAX TEMP:  49;

$$

AZZ020-021-025-026-031-191900-
SOUTHWEST ARIZONA

CITY           SKY/WX    TMP DP  RH WIND       PRES   REMARKS
YUMA           PTSUNNY   61  52  72 SE18      29.97F
6HR MIN TEMP:  53; 6HR MAX TEMP:  61;

$$

CAZ031-033-041-043-047-048-061-191900-
SOUTHERN CALIFORNIA

CITY           SKY/WX    TMP DP  RH WIND       PRES   REMARKS
DOWNTOWN L.A.  MOSUNNY   60  54  80 CALM      29.97R
6HR MIN TEMP:  52; 6HR MAX TEMP:  60; 6HR PCP:  0.69;

L.A. AIRPORT   PTSUNNY   59  55  87 W16G22    29.97R
6HR MIN TEMP:  53; 6HR MAX TEMP:  59; 6HR PCP:  0.35;

SAN DIEGO      PTSUNNY   61  56  83 SW16      30.02R
6HR MIN TEMP:  56; 6HR MAX TEMP:  61; 6HR PCP:  0.19;

BURBANK        CLOUDY    55  49  80 CALM      29.96R
6HR MIN TEMP:  50; 6HR MAX TEMP:  55; 6HR PCP:  0.17;

ONTARIO        PTSUNNY   53  50  89 SW6       29.96R
6HR MIN TEMP:  48; 6HR MAX TEMP:  53; 6HR PCP:  0.51;

RIVERSIDE      CLOUDY    52  52 100 W3        29.97R
6HR MIN TEMP:  49; 6HR MAX TEMP:  52; 6HR PCP:  0.48;

PALM SPRINGS   LGT RAIN  52  50  93 E5        29.96S
6HR MIN TEMP:  50; 6HR MAX TEMP:  53; 6HR PCP:  0.21;

EL CENTRO NAS  PTSUNNY   59  53  80 SE15      29.95F
6HR MIN TEMP:  50; 6HR MAX TEMP:  59;

IMPERIAL       MOSUNNY   60  54  80 SE14      29.93F
6HR MIN TEMP:  52; 6HR MAX TEMP:  60;

BLYTHE         PTSUNNY   59  45  59 S17       29.95F
6HR MIN TEMP:  52; 6HR MAX TEMP:  59;

NEEDLES        LGT RAIN  55  44  66 E3        29.93F
6HR MIN TEMP:  53; 6HR MAX TEMP:  56; 6HR PCP: TRACE;

$$

NVZ020-UTZ003-191900-
SOUTHERN NEVADA-UTAH

CITY           SKY/WX    TMP DP  RH WIND       PRES   REMARKS
LAS VEGAS      PTSUNNY   53  38  56 S14G21    29.83F
6HR MIN TEMP:  49; 6HR MAX TEMP:  53; 6HR PCP: TRACE;

SALT LAKE CITY CLOUDY    31  29  92 CALM      29.80S FOG
6HR MIN TEMP:  26; 6HR MAX TEMP:  31; 6HR PCP:  0.07;

$$

NMZ009-TXZ055-191900-
NEW MEXICO-WEST TEXAS

CITY           SKY/WX    TMP DP  RH WIND       PRES   REMARKS
ALBUQUERQUE    CLOUDY    43  30  60 CALM      29.94F
6HR MIN TEMP:  30; 6HR MAX TEMP:  43;

EL PASO        MOSUNNY   54  30  40 W12G25    29.98F
6HR MIN TEMP:  47; 6HR MAX TEMP:  54;

$$


........................KEY........................
SKY/WX - SKY CONDITION/WEATHER
TMP    - TEMPERATURE IN FAHRENHEIT
DP     - DEW POINT IN FAHRENHEIT
RH     - RELATIVE HUMIDITY IN PERCENT
WIND   - DIRECTION AND SPEED IN MILES PER HOUR (MPH)
VRB    - VARIABLE WIND DIRECTION
PRES   - MEAN SEA LEVEL PRESSURE IN INCHES OF MERCURY
         F - FALLING PRESSURE   R - RISING PRESSURE
         S - STEADY PRESSURE
VSB    - VISIBILITY IN MILES
HX     - HEAT INDEX IN FAHRENHEIT
WCI    - WIND CHILL INDEX IN FAHRENHEIT
TC     - TEMPERATURE IN CELSIUS WHICH IS ALSO KNOWN AS
         TEMPERATURE IN CENTIGRADE
AFB    - AIR FORCE BASE
         LUKE AFB IS LUKE AIR FORCE BASE
         DAVIS-MONTHAN IS DAVIS-MONTHAN AIR FORCE BASE
NAS    - NAVAL AIR STATION
         EL CENTRO NAS IS EL CENTRO NAVAL AIR STATION
N/A    - NOT AVAILABLE





USA.gov is the U.S. government's official web portal to all federal, state and local government web resources and services.